This demonstration page uses our WeatherBlox Daily Observations layout. Learn more.

Left ArrowRight Arrow

30.21309, -93.2044

Hourly Observations for July 13, 2019

Temp ( °F °C ) Dew Point ( °F °C ) Humidity (%) Winds ( mph kmh ) Pressure ( in mb ) Visibility ( mi km ) Precip ( " mm )
12:15 am 00:15 Partly Cloudy with Heavy Rain 79 26.1 74 23.5 86 86 NNE 15 24 29.67 1005 10 16 0.00 0.00
12:35 am 00:35 Partly Cloudy with Heavy Rain 80 26.9 73 22.9 79 79 NNE 13 20 29.67 1005 10 16 0.00 0.00
12:55 am 00:55 Partly Cloudy with Heavy Rain 80 26.6 73 22.7 79 79 NNE 14 22 29.66 1004 10 16 0.00 0.00
1:15 am 01:15 Clear with Rain 80 26.5 73 22.5 79 79 NNE 16 26 29.65 1004 10 16 0.00 0.00
1:35 am 01:35 Mostly Cloudy with Heavy Rain 80 26.5 72 22.4 78 78 NNE 18 30 29.65 1004 10 16 0.00 0.00
1:55 am 01:55 Cloudy with Heavy Rain 80 26.5 73 22.5 79 79 NNE 18 30 29.64 1004 10 16 0.00 0.00
2:15 am 02:15 Cloudy with Heavy Rain 80 26.5 73 22.5 79 79 NNE 16 26 29.63 1003 10 16 0.00 0.00
2:35 am 02:35 Cloudy with Heavy Rain 80 26.6 73 22.5 78 78 N 18 30 29.62 1003 10 16 0.00 0.00
2:55 am 02:55 Mostly Cloudy with Heavy Rain 80 26.5 73 22.5 79 79 NNE 18 30 29.61 1003 10 16 0.00 0.00
3:15 am 03:15 Mostly Cloudy with Heavy Rain 80 26.5 73 22.5 79 79 N 20 31 29.61 1003 10 16 0.00 0.00
3:35 am 03:35 Partly Cloudy with Heavy Rain 79 26.2 73 22.5 80 80 N 18 30 29.60 1002 10 16 0.00 0.00
3:55 am 03:55 Mostly Cloudy with Heavy Rain 79 26.2 73 22.5 80 80 N 16 26 29.60 1002 10 16 0.00 0.00
4:15 am 04:15 Cloudy with Heavy Rain 79 26.3 73 22.5 80 80 N 17 28 29.59 1002 10 16 0.00 0.00
4:35 am 04:35 Cloudy with Heavy Rain 79 26.3 73 22.5 80 80 N 17 28 29.59 1002 7 11 0.00 0.00
4:55 am 04:55 Cloudy with Heavy Rain 79 26.2 73 22.6 81 81 N 12 19 29.60 1002 10 16 0.00 0.00
5:15 am 05:15 Cloudy with Heavy Rain 79 26.2 73 22.5 80 80 N 17 28 29.59 1002 10 16 0.00 0.00
5:35 am 05:35 Cloudy with Heavy Rain 79 26 73 22.6 82 82 N 14 22 29.58 1002 10 16 0.00 0.00
6:00 am 06:00 Cloudy 79 26 73 23 84 84 N 15 24 29.58 1002 10 16 0.00 0.00
6:50 am 06:50 Cloudy 77 25 73 23 89 89 N 15 24 29.59 1002 10 16 0.00 0.00
7:50 am 07:50 Cloudy with Light Rain 75 24 75 24 100 100 N 17 28 29.60 1002 3 5 0.00 0.00
8:50 am 08:50 Cloudy with Light Rain 75 24 75 24 100 100 N 12 19 29.61 1003 6 10 0.00 0.00
9:50 am 09:50 Cloudy with Light Rain 75 24 75 24 100 100 N 13 20 29.61 1003 4 6 0.00 0.00
10:55 am 10:55 Cloudy with Light Rain 75 24 75 24 100 100 N 13 20 29.61 1003 4 6 0.00 0.00
11:55 am 11:55 Cloudy with Light Rain 75 24 73 23 94 94 N 16 26 29.62 1003 4 6 0.00 0.00
12:55 pm 12:55 Cloudy with Light Rain 75 24 73 23 94 94 N 16 26 29.62 1003 4 6 0.00 0.00
2:50 pm 14:50 Cloudy with Light Rain 77 25 73 23 89 89 NNW 20 31 29.59 1002 5 8 0.00 0.00
3:50 pm 15:50 Cloudy with Light Rain 77 25 73 23 89 89 NNW 18 30 29.58 1002 4 6 0.00 0.00
6:50 pm 18:50 Cloudy with Light Rain 75 24 75 24 100 100 WNW 8 13 29.59 1002 3 5 0.00 0.00
7:50 pm 19:50 Cloudy with Light Rain 75 24 73 23 94 94 W 7 11 29.62 1003 5 8 0.00 0.00
8:55 pm 20:55 Cloudy with Light Rain 75 24 73 23 94 94 SW 5 7 29.64 1004 5 8 0.00 0.00
9:50 pm 21:50 Cloudy with Light Rain 75 24 73 23 94 94 WSW 7 11 29.66 1004 5 8 0.00 0.00
10:15 pm 22:15 Cloudy with Heavy Rain 75 24 74 23.5 97 97 SSW 6 9 29.68 1005 5 8 0.00 0.00
10:35 pm 22:35 Cloudy with Light Rain 75 23.8 74 23.5 98 98 SSW 7 11 29.69 1005 5 8 0.00 0.00
10:55 pm 22:55 Cloudy with Light Rain 75 23.7 74 23.5 99 99 SSW 7 11 29.70 1006 4 6 0.01 0.25
11:15 pm 23:15 Cloudy with Light Rain 75 23.8 74 23.5 98 98 S 5 7 29.71 1006 5 8 0.00 0.00
11:35 pm 23:35 Cloudy with Light Rain 75 23.8 74 23.5 98 98 SSW 9 15 29.71 1006 5 8 0.00 0.00
11:55 pm 23:55 Cloudy with Light Rain 75 23.8 74 23.5 98 98 SSW 8 13 29.71 1006 7 11 0.00 0.00

Powered by AerisWeather